Radiation Dose at Monitoring Post of Fukushima Daini Nuclear Power Station
Date,Time,MP-1(microSv/h),MP-2(microSv/h),MP-3(microSv/h),MP-4(microSv/h),MP-5(microSv/h),MP-6(microSv/h),MP-7(microSv/h),Wind Direction,Wind Velocity(m/s),Rain
2022/09/20,00:00,0.148,0.136,0.214,0.207,0.210,0.118,0.076,south,10.1,Yes
2022/09/20,00:10,0.147,0.137,0.216,0.208,0.210,0.118,0.076,south,8.9,Yes
2022/09/20,00:20,0.146,0.138,0.213,0.205,0.208,0.118,0.075,south,8.1,Yes
2022/09/20,00:30,0.147,0.137,0.212,0.204,0.207,0.117,0.076,south,9.3,Yes
2022/09/20,00:40,0.148,0.136,0.215,0.208,0.211,0.117,0.076,south-southeast,10.3,Yes
2022/09/20,00:50,0.147,0.138,0.215,0.207,0.211,0.118,0.076,south,12.9,Yes
2022/09/20,01:00,0.145,0.138,0.212,0.205,0.208,0.117,0.075,south,12.6,Yes
2022/09/20,01:10,0.147,0.136,0.213,0.205,0.207,0.118,0.074,south,10.7,Yes
2022/09/20,01:20,0.148,0.136,0.215,0.208,0.211,0.117,0.076,south-southeast,9.8,Yes
2022/09/20,01:30,0.147,0.137,0.215,0.206,0.210,0.118,0.075,south,10.6,Yes
2022/09/20,01:40,0.146,0.137,0.212,0.204,0.209,0.118,0.075,south,10.7,Yes
2022/09/20,01:50,0.147,0.136,0.213,0.206,0.208,0.118,0.076,south-southeast,11.7,Yes
2022/09/20,02:00,0.149,0.136,0.215,0.208,0.210,0.117,0.075,south,12.5,Yes
2022/09/20,02:10,0.147,0.137,0.214,0.207,0.210,0.118,0.075,south-southeast,9.5,Yes
2022/09/20,02:20,0.146,0.138,0.213,0.205,0.209,0.118,0.075,south,10.6,Yes
2022/09/20,02:30,0.148,0.137,0.215,0.206,0.207,0.118,0.076,south-southeast,10.3,Yes
2022/09/20,02:40,0.148,0.137,0.216,0.207,0.211,0.117,0.075,south,9.6,Yes
2022/09/20,02:50,0.147,0.136,0.214,0.207,0.211,0.117,0.075,south,10.7,Yes
2022/09/20,03:00,0.146,0.138,0.213,0.206,0.211,0.118,0.076,south-southeast,9.2,Yes
2022/09/20,03:10,0.148,0.137,0.214,0.204,0.208,0.119,0.076,south,10.7,Yes
2022/09/20,03:20,0.148,0.137,0.215,0.208,0.209,0.119,0.075,south,11.8,Yes
2022/09/20,03:30,0.148,0.137,0.214,0.208,0.213,0.118,0.075,south,9.6,Yes
2022/09/20,03:40,0.147,0.137,0.213,0.207,0.211,0.118,0.075,south,9.8,Yes
2022/09/20,03:50,0.147,0.138,0.214,0.206,0.208,0.118,0.075,south-southeast,11.1,Yes
2022/09/20,04:00,0.148,0.137,0.214,0.206,0.208,0.118,0.077,south,11.4,Yes
2022/09/20,04:10,0.148,0.136,0.215,0.209,0.211,0.119,0.075,south,9.5,Yes
2022/09/20,04:20,0.147,0.136,0.214,0.207,0.212,0.118,0.075,south,10.9,Yes
2022/09/20,04:30,0.146,0.138,0.214,0.206,0.210,0.119,0.076,south,8.7,Yes
2022/09/20,04:40,0.149,0.137,0.216,0.205,0.208,0.119,0.077,south-southeast,10.3,Yes
2022/09/20,04:50,0.148,0.137,0.214,0.209,0.210,0.118,0.076,south,11.7,Yes
2022/09/20,05:00,0.148,0.137,0.213,0.208,0.211,0.119,0.075,south,8.5,Yes
2022/09/20,05:10,0.147,0.138,0.215,0.206,0.211,0.119,0.076,south-southeast,10.0,Yes
2022/09/20,05:20,0.148,0.138,0.218,0.206,0.209,0.119,0.077,south,9.2,Yes
2022/09/20,05:30,0.148,0.137,0.213,0.209,0.210,0.118,0.076,south-southeast,9.2,Yes
2022/09/20,05:40,0.147,0.136,0.213,0.208,0.212,0.119,0.075,south,9.2,Yes
2022/09/20,05:50,0.147,0.138,0.215,0.207,0.211,0.118,0.076,south,9.6,Yes
2022/09/20,06:00,0.148,0.139,0.216,0.205,0.209,0.118,0.076,south,9.6,Yes
2022/09/20,06:10,0.149,0.138,0.214,0.208,0.208,0.118,0.076,south,9.2,Yes
2022/09/20,06:20,0.147,0.137,0.214,0.209,0.211,0.119,0.076,south,10.1,Yes
2022/09/20,06:30,0.147,0.139,0.217,0.207,0.210,0.119,0.076,south,7.8,Yes
2022/09/20,06:40,0.148,0.139,0.216,0.206,0.210,0.118,0.077,south,8.6,Yes
2022/09/20,06:50,0.149,0.137,0.214,0.209,0.208,0.118,0.076,south,9.3,Yes
2022/09/20,07:00,0.148,0.137,0.213,0.209,0.211,0.119,0.076,south,8.3,Yes
2022/09/20,07:10,0.147,0.139,0.217,0.207,0.211,0.119,0.076,south,6.8,Yes
2022/09/20,07:20,0.146,0.139,0.216,0.206,0.209,0.118,0.077,south,8.1,Yes
2022/09/20,07:30,0.148,0.138,0.214,0.208,0.208,0.118,0.075,south,7.9,Yes
2022/09/20,07:40,0.148,0.138,0.213,0.209,0.209,0.118,0.075,south,7.3,No
2022/09/20,07:50,0.148,0.137,0.216,0.208,0.212,0.118,0.075,south,7.3,No
2022/09/20,08:00,0.147,0.138,0.217,0.205,0.210,0.119,0.077,south-southeast,6.8,No
2022/09/20,08:10,0.147,0.137,0.215,0.206,0.209,0.118,0.076,south,7.3,No
2022/09/20,08:20,0.148,0.138,0.213,0.206,0.208,0.119,0.076,south,6.1,No
2022/09/20,08:30,0.148,0.138,0.212,0.209,0.207,0.118,0.076,south,6.1,No
2022/09/20,08:40,0.147,0.137,0.213,0.209,0.210,0.119,0.075,south,8.4,No
2022/09/20,08:50,0.146,0.137,0.215,0.208,0.212,0.119,0.075,south,5.5,No
2022/09/20,09:00,0.147,0.136,0.218,0.207,0.212,0.118,0.076,south,5.8,Yes
2022/09/20,09:10,0.148,0.138,0.217,0.205,0.209,0.118,0.075,south,6.2,No
2022/09/20,09:20,0.149,0.138,0.214,0.205,0.210,0.119,0.077,south,5.4,No
2022/09/20,09:30,0.149,0.139,0.213,0.206,0.209,0.120,0.076,south,5.5,No
2022/09/20,09:40,0.148,0.138,0.214,0.210,0.209,0.119,0.075,south,6.5,No
2022/09/20,09:50,0.147,0.137,0.214,0.209,0.209,0.118,0.075,south,4.4,Yes
2022/09/20,10:00,0.148,0.138,0.217,0.209,0.211,0.119,0.076,west,7.1,Yes
2022/09/20,10:10,0.152,0.140,0.219,0.208,0.214,0.122,0.078,west-northwest,8.4,Yes
2022/09/20,10:20,0.152,0.143,0.218,0.210,0.213,0.124,0.081,west-northwest,7.5,Yes
2022/09/20,10:30,0.152,0.142,0.218,0.214,0.215,0.124,0.082,west-northwest,5.1,Yes
2022/09/20,10:40,0.156,0.143,0.220,0.212,0.217,0.126,0.082,west-northwest,4.8,Yes
2022/09/20,10:50,0.156,0.145,0.219,0.213,0.215,0.126,0.084,northwest,6.3,Yes
2022/09/20,11:00,0.154,0.145,0.221,0.214,0.218,0.126,0.083,northwest,6.1,Yes
2022/09/20,11:10,0.156,0.145,0.221,0.211,0.217,0.125,0.083,north-northeast,3.5,Yes
2022/09/20,11:20,0.154,0.145,0.217,0.213,0.214,0.126,0.084,north-northwest,5.0,Yes
2022/09/20,11:30,0.153,0.144,0.220,0.211,0.217,0.126,0.084,northwest,5.5,Yes
2022/09/20,11:40,0.154,0.144,0.219,0.211,0.216,0.124,0.083,west-northwest,4.9,Yes
2022/09/20,11:50,0.152,0.143,0.217,0.213,0.214,0.126,0.082,west-northwest,4.9,Yes
2022/09/20,12:00,0.152,0.143,0.218,0.212,0.216,0.123,0.082,northwest,4.4,Yes
2022/09/20,12:10,0.152,0.142,0.217,0.209,0.214,0.122,0.081,northwest,4.2,Yes
2022/09/20,12:20,0.151,0.142,0.217,0.212,0.213,0.124,0.084,north-northwest,5.4,Yes
2022/09/20,12:30,0.155,0.146,0.223,0.213,0.218,0.127,0.087,north,5.8,Yes
2022/09/20,12:40,0.157,0.148,0.222,0.213,0.219,0.129,0.091,northwest,3.4,Yes
2022/09/20,12:50,0.156,0.149,0.223,0.215,0.217,0.131,0.091,west-southwest,2.1,Yes
2022/09/20,13:00,0.156,0.149,0.223,0.213,0.221,0.131,0.092,north-northeast,1.2,Yes
2022/09/20,13:10,0.155,0.148,0.222,0.214,0.219,0.129,0.093,north,3.3,Yes
2022/09/20,13:20,0.154,0.148,0.222,0.214,0.219,0.128,0.090,north,6.3,Yes
2022/09/20,13:30,0.153,0.147,0.220,0.211,0.219,0.127,0.089,north,6.6,Yes
2022/09/20,13:40,0.153,0.145,0.222,0.212,0.217,0.125,0.088,north,6.5,Yes
2022/09/20,13:50,0.153,0.146,0.220,0.212,0.218,0.126,0.085,north-northwest,6.3,Yes
2022/09/20,14:00,0.151,0.146,0.220,0.213,0.217,0.125,0.086,north,6.1,Yes
2022/09/20,14:10,0.153,0.147,0.220,0.211,0.218,0.127,0.088,north,5.4,Yes
2022/09/20,14:20,0.152,0.147,0.220,0.212,0.219,0.127,0.089,north,5.0,Yes
2022/09/20,14:30,0.153,0.149,0.223,0.215,0.218,0.129,0.091,north,6.4,Yes
2022/09/20,14:40,0.153,0.148,0.221,0.212,0.220,0.128,0.090,north,6.1,Yes
2022/09/20,14:50,0.151,0.147,0.223,0.214,0.219,0.127,0.088,north,7.1,Yes
2022/09/20,15:00,0.152,0.145,0.219,0.212,0.218,0.126,0.088,north,6.6,Yes
2022/09/20,15:10,0.150,0.146,0.220,0.213,0.217,0.126,0.086,north-northwest,5.3,Yes
2022/09/20,15:20,0.151,0.145,0.219,0.210,0.217,0.127,0.088,north,6.7,Yes
2022/09/20,15:30,0.151,0.148,0.221,0.211,0.219,0.127,0.089,north,6.3,Yes
2022/09/20,15:40,0.152,0.148,0.220,0.212,0.219,0.129,0.091,north,9.2,Yes
2022/09/20,15:50,0.151,0.149,0.222,0.214,0.221,0.129,0.091,north,8.4,Yes
2022/09/20,16:00,0.152,0.148,0.221,0.213,0.220,0.128,0.091,north-northwest,9.5,Yes
2022/09/20,16:10,0.152,0.148,0.222,0.215,0.219,0.128,0.090,north-northwest,8.1,Yes
2022/09/20,16:20,0.152,0.147,0.220,0.212,0.219,0.127,0.090,north-northwest,6.8,Yes
2022/09/20,16:30,0.151,0.149,0.221,0.215,0.219,0.129,0.090,north,7.6,Yes
2022/09/20,16:40,0.151,0.148,0.221,0.213,0.219,0.127,0.088,north-northwest,6.4,Yes
2022/09/20,16:50,0.151,0.147,0.221,0.215,0.221,0.127,0.087,north,5.3,Yes
2022/09/20,17:00,0.152,0.147,0.221,0.213,0.219,0.127,0.087,north,6.2,Yes
2022/09/20,17:10,0.150,0.146,0.221,0.214,0.219,0.126,0.086,north,7.7,Yes
2022/09/20,17:20,0.152,0.146,0.221,0.213,0.218,0.125,0.086,north,7.4,Yes
2022/09/20,17:30,0.150,0.146,0.221,0.215,0.220,0.127,0.087,north,6.8,Yes
2022/09/20,17:40,0.151,0.147,0.223,0.213,0.220,0.127,0.088,north-northwest,7.0,Yes
2022/09/20,17:50,0.151,0.148,0.222,0.215,0.222,0.129,0.087,north-northwest,8.3,Yes
2022/09/20,18:00,0.153,0.149,0.222,0.216,0.220,0.128,0.090,northwest,6.4,Yes
2022/09/20,18:10,0.153,0.149,0.222,0.215,0.221,0.130,0.089,north-northwest,5.5,Yes
2022/09/20,18:20,0.152,0.148,0.223,0.216,0.221,0.128,0.090,north,5.2,Yes
2022/09/20,18:30,0.150,0.148,0.222,0.215,0.220,0.127,0.088,north,6.3,Yes
2022/09/20,18:40,0.151,0.147,0.222,0.215,0.221,0.126,0.088,north,7.2,Yes
2022/09/20,18:50,0.150,0.147,0.222,0.214,0.220,0.127,0.088,north-northwest,6.5,Yes
2022/09/20,19:00,0.151,0.146,0.220,0.214,0.218,0.126,0.087,north-northwest,6.0,Yes
2022/09/20,19:10,0.151,0.145,0.220,0.212,0.217,0.126,0.086,north-northwest,5.7,Yes
2022/09/20,19:20,0.150,0.145,0.220,0.213,0.218,0.124,0.084,north,6.2,Yes
2022/09/20,19:30,0.149,0.143,0.219,0.211,0.215,0.124,0.083,north,6.9,Yes
2022/09/20,19:40,0.148,0.141,0.217,0.211,0.217,0.121,0.082,north,8.1,Yes
2022/09/20,19:50,0.148,0.140,0.216,0.208,0.212,0.120,0.081,north,7.0,Yes
2022/09/20,20:00,0.147,0.140,0.215,0.208,0.213,0.119,0.079,north-northwest,6.3,Yes
2022/09/20,20:10,0.147,0.139,0.213,0.206,0.212,0.118,0.078,north-northwest,7.4,No
2022/09/20,20:20,0.146,0.138,0.214,0.206,0.213,0.117,0.077,north-northwest,6.9,No
2022/09/20,20:30,0.146,0.137,0.212,0.206,0.210,0.117,0.078,northwest,7.5,No
2022/09/20,20:40,0.145,0.138,0.213,0.206,0.211,0.116,0.076,northwest,6.9,No
2022/09/20,20:50,0.146,0.136,0.212,0.205,0.210,0.117,0.076,north-northwest,6.7,No
2022/09/20,21:00,0.145,0.136,0.212,0.204,0.211,0.115,0.076,north-northwest,6.9,No
2022/09/20,21:10,0.147,0.136,0.211,0.205,0.208,0.116,0.076,north-northwest,6.9,No
2022/09/20,21:20,0.145,0.137,0.212,0.205,0.211,0.115,0.075,north-northwest,6.9,Yes
2022/09/20,21:30,0.146,0.135,0.212,0.204,0.208,0.116,0.075,northwest,6.6,No
2022/09/20,21:40,0.146,0.135,0.212,0.205,0.210,0.115,0.075,north-northwest,6.8,No
2022/09/20,21:50,0.145,0.136,0.212,0.204,0.208,0.115,0.075,north-northwest,6.7,No
2022/09/20,22:00,0.145,0.135,0.212,0.204,0.210,0.115,0.075,north-northwest,6.7,No
2022/09/20,22:10,0.146,0.136,0.214,0.205,0.209,0.115,0.075,north-northwest,6.4,No
2022/09/20,22:20,0.145,0.135,0.210,0.204,0.210,0.116,0.075,north-northwest,6.0,Yes
2022/09/20,22:30,0.145,0.135,0.213,0.205,0.208,0.115,0.075,north-northwest,6.2,Yes
2022/09/20,22:40,0.146,0.135,0.211,0.204,0.209,0.115,0.075,north-northwest,6.6,No
2022/09/20,22:50,0.146,0.136,0.213,0.206,0.208,0.115,0.075,north-northwest,6.5,No
2022/09/20,23:00,0.144,0.135,0.211,0.204,0.211,0.115,0.075,north-northwest,6.6,No
2022/09/20,23:10,0.146,0.136,0.213,0.205,0.209,0.115,0.076,north-northwest,5.9,No
2022/09/20,23:20,0.145,0.135,0.210,0.203,0.211,0.115,0.074,north-northwest,5.9,No
2022/09/20,23:30,0.146,0.135,0.212,0.205,0.208,0.116,0.075,north-northwest,5.6,No
2022/09/20,23:40,0.145,0.136,0.211,0.203,0.209,0.116,0.075,northwest,6.1,No
2022/09/20,23:50,0.145,0.136,0.212,0.205,0.208,0.115,0.075,north-northwest,6.5,No
